Location: Cantaing
(50.1487°N, 3.1675°E)
Time: 06:34:13
(UTC+00:00)

CZ-4C R/B - Pass Details

Date: 14 January 2026
Orbit: 483 x 1496 km, 63.4° (Epoch: 10 February)

Event Time Altitude Azimuth Distance (km) Brightness Sun altitude
Exits shadow 05:49:06 16° 328° (NNW) 2,211 4.0 -17.3°
Maximum altitude 05:52:57 28° 17° (NNE) 1,825 4.0 -16.7°
Drops below altitude 10° 05:59:10 10° 74° (ENE) 3,140 6.1 -15.7°
Sets 06:02:46 0° 85° (E) 4,269 7.2 -15.2°
